Location: Unspecified
(34.6261°N, 0.0000°E)
Time: 00:24:06
(UTC+00:00)

Meteor 2-10 Rocket - Visible Passes

Search period start: 04 April 2026 00:00
Search period end: 14 April 2026 00:00
Orbit: 732 x 882 km, 81.2° (Epoch: 29 March)

Date Brightness Start Highest point End Pass type
(mag) Time Alt. Az. Time Alt. Az. Time Alt. Az.
4 Apr 6.5 05:08:53 10° NNE 05:12:32 20° ENE 05:16:10 10° ESE visible
4 Apr 5.8 19:48:32 10° SW 19:53:08 28° WNW 19:57:39 10° NNW visible
5 Apr 6.9 04:44:54 10° NE 04:47:17 13° ENE 04:49:40 10° E visible
5 Apr 5.1 19:22:54 10° SSW 19:28:01 40° WNW 19:32:57 10° N visible
6 Apr 4.3 18:57:33 10° SSW 19:02:55 60° W 19:08:06 10° N visible
8 Apr 4.9 05:09:37 10° N 05:14:24 43° ENE 05:19:14 10° SSE visible
8 Apr 6.9 19:52:50 10° W 19:55:10 13° WNW 19:57:28 10° NW visible
9 Apr 5.7 04:44:54 10° NNE 04:49:15 29° ENE 04:53:40 10° SE visible
9 Apr 6.6 19:26:12 10° WSW 19:29:55 19° WNW 19:33:35 10° NNW visible
10 Apr 6.4 04:20:25 10° NNE 04:24:04 20° ENE 04:27:45 10° ESE visible
10 Apr 6.0 19:00:14 10° SW 19:04:45 28° WNW 19:09:09 10° NNW visible
11 Apr 6.8 03:56:27 10° NE 03:58:50 13° ENE 04:01:14 10° E visible
13 Apr 4.0 04:46:01 10° N 04:51:02 65° E 04:56:11 10° SSE visible
